Main page
METAR-TAF:

METAR-TAF

Airports :

Baraboo–Wisconsin Dells Airport

Baraboo / Wisconsin Dells, Wisconsin, United States

latitude: 43-31-19N, longitude: 089-46-15W, elevation: 977 ft

Current weather observation

The report was made 21 minutes ago, at 20:35 UTC
Wind 3 mph from the West/Northwest
Temperature 77°F
Humidity 24%
Pressure 30.01 in. Hg
Visibility: 10 miles
Clear sky

METAR: KDLL 192035Z AUTO 29003KT 10SM CLR 25/03 A3001 RMK AO2 T02470032

Time: 15:56 (20:56 UTC)


TAF: missing

Weather observations and forecasts of more than 4000 airports (METAR and TAF reports).

The available stations are represented by yellow and red dots on the map.

Hover mouse over dot to see the name of the station.

Then click to see weather observations and forecasts.

To change the map : click on the green buttons with a black cross to zoom in, on the green button with a dash to zoom out, or on the green arrows for adjacent maps.


METAR-TAF: